Location: La Junie
(44.7428°N, 2.1773°E)
Time: 20:22:02
(UTC+00:00)

USA 186 - Pass Details

Date: 15 May 2026
Orbit: 338 x 359 km, 97.0° (Epoch: 19 May)

Event Time Altitude Azimuth Distance (km) Brightness Sun altitude
Exits shadow 21:12:57 24° 223° (SW) 760 2.9 -17.1°
Maximum altitude 21:13:54 31° 262° (W) 631 2.9 -17.2°
Drops below altitude 10° 21:16:25 10° 328° (NNW) 1,292 5.5 -17.5°
Sets 21:18:28 0° 339° (NNW) 2,138 6.8 -17.7°
